RADUGA 3 [-]

Last updated on June 27, 2019, 3:44 a.m. UTC

1 10159U 77071A   19176.82032383 -.00000167  00000-0  00000-0 0  9996
2 10159  10.2913 307.1977 0006725 215.0372 128.0356  1.00355580151489
UTC
Height (km)
Latitude
Longitude
Inclination
Orbital Period
UTC large
Height (km)
Speed (km/s)
/
Latitude / Longitude
Inclination (degrees)
Orbital Period (minutes)
Azimuth
Elevation
Range (km)
Doppler Factor
iOS Compass Heading
iOS Angle

Next 30 passes for location: Hong Kong

Rise time Rise Azimuth (degrees) Set time Set Azimuth (degrees) Duration Max altitude (degrees)

No matching passes for this satellites